Theta_e
305 305 306 307 308 308 309 309 311 310 304 304 307 307 308 309 303 305 307 309 306 304 303 300 299 297 296 295 293 292 291 290 289 290 290 290 290 289 289 288 288 288 288 289
304 303 304 305 305 306 307 307 307 307 302 300 304 305 305 305 306 305 305 306 306 304 303 300 298 296 295 294 293 291 291 289 289 290 290 291 290 289 289 288 287 287 287 288
303 302 299 302 303 304 305 305 305 306 305 301 302 303 305 305 305 305 305 306 306 305 303 301 297 296 295 294 292 291 290 289 289 290 289 289 289 288 288 288 287 287 287 287
302 299 299 300 301 303 303 304 304 304 304 303 301 303 306 307 306 304 304 303 304 304 303 301 297 297 295 293 292 291 290 289 289 289 288 288 289 289 289 288 288 286 286 287
301 298 298 299 300 301 302 299 301 302 303 303 303 301 304 305 304 305 303 302 302 304 304 302 298 297 296 294 292 291 289 289 288 288 288 288 289 290 289 288 287 287 286 286
297 293 296 298 295 296 298 299 299 299 300 302 302 302 305 306 306 304 305 304 301 303 303 303 299 298 296 294 292 291 289 289 288 288 288 289 290 289 288 288 287 287 286 286
296 296 293 294 297 296 298 300 304 305 304 305 301 303 305 306 305 303 303 304 302 301 303 302 301 298 296 294 292 291 290 289 288 288 288 289 289 289 288 288 288 287 287 286
301 302 294 294 297 299 298 300 305 308 307 306 296 300 304 304 304 302 300 299 301 300 302 302 300 297 296 294 292 291 290 289 288 288 288 288 289 288 288 288 288 288 287 287
303 299 291 291 292 294 298 299 299 305 297 300 301 304 304 304 303 303 302 299 298 299 300 302 301 297 296 294 292 291 290 289 288 288 288 288 288 288 288 288 288 287 287 287
300 303 291 290 291 292 295 295 299 299 305 305 303 305 304 305 305 304 303 302 300 298 298 299 300 297 296 293 292 291 290 289 288 288 288 288 287 287 288 287 287 287 287 286
304 301 293 290 293 296 293 296 296 299 303 304 303 305 309 305 302 301 300 299 299 299 297 298 299 297 296 293 292 291 290 290 288 288 288 287 287 287 287 287 287 287 286 285
300 306 299 297 291 290 292 297 298 301 303 300 301 303 304 304 300 297 298 298 297 297 297 297 297 297 296 293 292 291 290 290 289 288 287 287 287 287 287 287 287 286 286 285
297 301 300 299 293 290 292 293 296 298 297 303 305 304 299 300 301 300 298 298 298 296 297 297 297 296 295 294 292 291 290 290 289 288 287 287 287 287 287 287 286 286 285 285
296 306 303 305 302 298 294 294 293 297 301 299 300 300 300 301 300 300 300 300 299 296 295 296 296 296 295 294 293 291 290 290 288 288 287 287 287 287 286 286 286 286 285 285
299 298 297 298 296 293 296 297 294 295 296 298 298 299 300 300 301 300 299 299 297 295 295 295 296 296 294 293 292 291 290 289 289 288 288 287 287 287 286 286 286 285 285 284
292 302 293 298 298 295 295 296 295 295 295 295 296 296 297 297 298 298 298 298 297 297 296 295 294 294 293 292 292 291 291 290 289 288 288 287 287 286 286 286 285 285 284 284
296 299 297 301 295 296 298 297 297 298 298 297 298 299 299 299 299 299 299 298 297 296 296 295 294 293 292 292 292 291 291 289 289 288 288 287 286 286 285 285 284 284 283 283
297 298 301 302 293 301 302 294 298 298 299 300 299 298 298 299 299 299 298 295 295 295 295 295 294 293 291 290 290 289 289 288 288 288 287 286 285 284 284 284 283 283 282 281
298 297 300 302 302 300 299 300 296 295 300 297 298 299 299 299 298 296 291 288 291 290 294 294 293 292 290 289 289 288 287 287 287 286 285 284 284 283 282 281 281 280 279 278
294 297 300 301 301 302 300 295 296 296 299 300 300 299 299 299 296 299 285 284 284 285 287 288 287 287 286 285 285 284 283 282 281 281 281 281 281 280 279 278 277 276 277 275
292 294 297 300 301 301 301 292 294 300 307 295 295 296 297 297 297 286 282 281 280 280 281 282 282 281 281 281 279 278 277 275 275 277 277 277 277 277 276 275 275 274 273 273
294 295 295 296 300 300 295 293 297 304 298 294 294 294 294 295 286 283 281 280 279 278 277 277 276 275 275 275 274 273 272 272 273 273 273 273 273 273 273 273 272 271 271 271
295 298 299 298 299 302 296 297 296 293 295 295 293 292 290 290 286 282 280 277 275 275 274 273 272 271 270 271 271 270 270 270 270 271 270 270 270 270 270 270 270 270 270 270
292 295 295 295 296 296 296 296 293 292 291 292 290 289 288 288 284 280 277 275 274 273 272 271 270 269 268 268 268 268 268 269 269 268 268 268 268 269 269 269 269 269 269 269
297 294 295 296 296 296 296 296 295 294 291 289 287 286 286 285 281 279 277 275 273 272 271 270 269 268 267 267 267 267 267 268 267 267 267 267 267 267 268 268 268 268 268 269
294 296 296 297 297 297 297 296 291 292 291 288 286 283 283 282 280 277 275 273 272 270 269 268 267 266 266 266 266 266 266 267 266 266 266 265 266 266 266 266 266 267 267 267
Wind_Speed
11 10 15 18 18 19 19 15 17 12 4 6 17 21 20 17 14 16 18 18 19 20 21 25 25 24 23 22 22 22 20 19 17 15 14 11 10 8 7 7 7 8 8 9
6 16 15 7 9 15 16 19 20 18 5 5 16 24 22 21 21 21 21 20 20 18 19 23 26 27 27 26 25 23 22 21 19 15 14 11 11 8 8 8 8 8 9 10
14 1 5 4 9 11 16 18 18 17 5 13 15 23 23 21 24 22 22 20 19 21 22 21 26 31 29 29 28 26 24 23 20 17 15 13 11 10 9 9 8 9 9 10
11 2 5 6 11 12 15 9 12 15 7 8 4 13 16 14 11 15 20 20 21 23 23 22 25 30 32 30 28 27 26 25 22 20 18 18 16 15 12 12 10 10 10 8
3 4 7 11 6 8 2 3 5 10 12 13 16 8 7 12 16 18 19 21 22 21 22 23 23 32 33 31 30 29 28 26 24 23 19 19 14 14 14 12 13 11 10 9
2 1 3 1 3 0 3 2 2 4 6 8 15 15 19 15 14 15 14 18 20 21 21 20 27 30 30 30 30 29 29 28 26 24 20 19 17 16 17 16 15 13 11 10
5 7 4 2 4 2 7 6 3 4 5 8 1 11 19 11 18 9 11 11 12 17 19 20 22 25 31 33 32 31 31 29 28 26 23 20 18 17 17 18 16 15 14 12
7 6 10 9 3 4 13 7 5 7 8 10 3 8 6 8 14 10 9 9 8 13 17 20 21 27 31 34 34 32 32 30 29 28 25 21 19 17 16 17 15 14 14 12
6 4 3 1 1 2 7 7 3 5 2 5 9 16 8 14 15 12 10 6 9 10 14 18 17 26 30 33 35 34 32 30 31 28 26 23 21 18 17 17 15 14 13 13
1 2 0 4 2 3 2 3 3 4 5 8 8 8 10 12 13 6 8 7 9 11 12 15 17 24 28 30 31 32 32 32 32 30 28 26 24 22 18 18 18 17 15 15
1 0 4 2 9 10 5 5 5 3 5 5 8 6 3 5 6 9 11 11 12 8 11 12 14 23 25 28 30 32 32 31 30 31 29 28 27 26 23 22 21 19 17 17
4 1 4 6 4 2 3 6 10 5 6 6 6 11 10 12 4 4 7 4 7 6 5 11 13 21 25 27 29 31 30 30 30 30 29 27 26 26 24 22 22 22 21 19
8 3 4 4 1 1 5 7 8 8 4 14 8 7 2 2 5 4 3 5 6 1 5 9 12 14 21 26 29 30 30 29 29 29 28 27 26 25 24 23 22 23 23 21
5 4 6 10 4 3 4 6 12 10 7 12 21 24 21 20 20 21 21 21 12 4 6 10 12 13 18 22 26 28 28 29 29 28 28 27 27 25 24 22 23 22 23 23
2 5 4 10 13 6 7 8 11 15 20 13 21 25 19 15 14 16 17 17 8 7 9 12 13 13 16 19 23 25 27 28 29 28 27 27 26 24 23 22 22 21 21 21
2 7 2 5 12 12 15 16 13 21 22 24 25 36 23 23 22 24 25 22 18 13 11 11 12 13 15 24 25 26 27 28 29 27 26 25 25 24 23 22 21 20 18 18
7 5 4 7 2 8 14 20 24 21 19 23 22 35 20 23 23 23 22 18 16 15 10 11 15 14 18 23 26 26 26 27 27 25 25 25 25 24 23 22 21 20 18 16
6 8 5 3 2 9 1 2 7 20 22 20 26 29 26 25 25 20 13 10 13 13 9 9 9 13 17 20 21 24 25 26 25 24 24 24 25 24 23 23 22 21 20 18
10 9 4 5 10 12 16 10 7 8 11 19 22 24 23 19 14 19 6 12 9 10 8 3 10 15 18 20 20 23 22 22 21 21 21 23 27 29 29 29 26 22 21 19
4 8 8 6 6 9 2 3 7 4 8 13 12 17 16 4 6 8 7 9 10 10 14 12 14 15 17 19 23 25 23 24 22 24 25 26 27 28 27 26 24 22 22 21
5 5 15 16 12 9 5 7 5 3 4 1 0 3 7 6 3 3 5 8 9 10 12 13 15 15 14 16 21 24 24 23 24 27 28 28 27 29 28 28 26 25 24 23
11 13 7 10 7 17 8 7 9 3 2 3 2 2 4 4 2 2 5 6 7 9 13 15 18 17 15 16 23 24 26 25 29 32 33 32 30 29 29 30 27 25 25 23
6 9 6 11 8 1 7 11 8 3 2 2 2 3 4 3 4 4 5 7 7 9 12 15 19 20 20 20 23 28 23 27 32 35 34 33 32 31 30 30 27 24 21 18
6 6 5 4 13 16 11 8 5 4 7 5 5 4 4 5 7 8 8 7 7 10 13 16 20 22 23 22 25 27 27 32 36 34 31 30 32 30 28 26 23 22 18 15
9 8 8 11 17 12 18 11 11 11 13 10 6 5 6 6 8 10 10 10 10 13 15 16 20 23 24 25 28 26 28 34 35 33 30 29 28 28 28 25 22 22 16 12
14 15 11 12 10 6 14 9 5 7 11 9 8 5 5 8 10 11 10 12 15 16 18 21 22 26 26 27 29 27 27 31 33 30 26 25 26 25 26 25 24 18 15 13
Wind_Direction
201 216 218 225 228 250 274 278 267 273 117 255 241 254 258 248 213 228 228 220 214 211 200 199 195 192 188 187 182 181 175 173 167 166 161 158 154 149 139 128 124 118 118 118
191 231 239 243 282 244 254 256 261 270 167 222 275 270 265 256 243 226 229 221 216 209 204 195 191 192 191 188 186 182 181 178 174 172 164 165 161 159 153 144 138 135 132 132
229 120 62 202 231 236 242 250 259 264 277 238 276 275 258 249 237 236 226 230 217 208 201 193 190 192 190 191 187 185 183 181 177 172 166 159 164 157 157 158 149 146 144 139
244 142 178 199 234 226 253 258 257 264 256 263 169 290 285 293 237 227 227 223 221 206 202 196 190 192 191 190 188 185 184 182 180 175 171 173 172 171 175 169 163 156 152 146
188 192 200 225 241 188 270 12 250 262 258 276 255 263 284 258 256 239 228 226 221 212 202 194 192 192 191 188 185 184 182 182 181 181 180 181 180 177 167 166 161 161 160 156
315 56 246 46 87 18 104 139 193 234 258 253 242 239 276 256 254 248 250 229 221 214 203 198 193 189 189 185 184 182 181 183 182 184 185 186 184 173 170 170 168 168 167 166
176 206 142 202 162 151 200 189 227 235 211 251 320 243 246 299 292 256 265 277 213 210 202 195 189 185 185 182 183 181 182 183 184 185 187 187 187 183 182 175 175 172 173 174
201 219 182 163 243 200 193 218 237 255 246 283 115 240 254 251 285 277 274 277 266 207 204 200 193 186 184 181 181 181 182 182 183 185 187 187 188 186 185 182 182 180 179 176
189 182 123 68 343 305 161 215 14 311 152 270 247 253 256 249 262 276 273 272 255 240 211 202 196 189 183 181 183 182 180 183 184 185 185 186 187 185 183 185 183 181 178 175
256 188 26 110 206 199 280 344 169 211 248 252 248 261 254 279 277 20 15 311 258 235 214 201 196 189 187 183 181 181 183 183 183 184 184 183 185 186 183 184 182 183 180 178
72 269 112 160 202 190 172 211 221 290 251 263 284 266 11 344 35 344 338 328 327 271 229 206 196 189 188 179 180 182 182 183 183 185 183 182 184 187 185 188 187 184 182 184
174 112 227 209 96 8 338 236 193 224 209 239 286 258 290 291 320 294 297 298 356 327 240 212 196 186 183 181 181 182 181 183 185 184 183 182 182 185 187 187 188 188 186 189
167 202 227 197 188 22 222 208 231 257 296 246 264 250 137 214 308 270 283 4 346 306 216 202 199 197 189 184 181 181 182 183 182 181 180 180 181 184 186 188 188 191 191 192
166 183 243 247 57 76 204 215 224 222 248 263 242 270 270 283 291 295 304 300 324 229 211 206 198 203 199 189 183 181 182 182 177 178 180 181 185 185 185 185 186 191 196 196
206 229 217 260 268 226 241 222 204 216 233 245 270 272 272 281 289 295 296 293 295 240 215 212 206 189 192 190 186 185 182 179 177 178 182 184 182 181 182 181 182 187 194 196
68 218 124 263 256 244 254 244 233 242 240 257 265 270 265 273 275 271 273 273 275 267 236 214 206 198 190 187 189 186 184 180 178 179 181 177 175 176 178 175 175 174 179 185
168 198 181 252 346 290 270 242 228 243 240 238 252 258 282 274 269 267 275 277 275 272 241 215 208 201 194 187 179 177 175 171 176 176 175 171 170 170 170 168 166 163 161 164
167 195 193 253 148 250 355 118 223 233 249 242 252 262 266 267 275 283 295 306 288 272 263 220 202 191 173 167 169 163 165 166 168 168 166 162 160 158 157 157 153 147 154 164
186 180 200 222 211 284 296 258 189 186 255 232 246 258 268 273 280 287 325 356 330 346 328 203 178 160 155 152 154 151 150 155 157 151 147 148 150 145 148 146 149 155 154 147
227 209 208 180 232 246 96 43 115 146 270 254 234 255 272 301 269 287 14 11 15 18 23 64 85 114 126 133 136 130 123 120 115 122 128 142 149 151 148 148 142 143 144 137
176 198 214 223 241 269 212 159 159 208 279 156 341 278 280 240 267 30 37 44 46 50 60 73 81 88 98 109 115 107 108 102 115 127 130 132 139 139 139 135 135 134 132 130
172 177 197 218 236 254 152 125 216 213 168 172 210 283 274 262 109 68 66 68 69 75 77 83 85 79 77 94 103 98 95 109 117 119 116 114 117 117 122 124 122 123 122 116
220 214 194 205 214 276 193 223 232 22 302 286 209 259 292 262 191 154 120 95 84 91 95 99 99 86 73 87 103 100 104 109 110 108 104 105 106 107 112 111 108 105 107 103
222 216 241 156 247 256 256 255 260 250 252 289 264 257 237 228 162 145 131 128 118 112 110 112 108 96 87 87 93 102 110 114 109 100 99 101 101 101 101 99 100 100 100 101
262 155 216 254 265 287 271 253 243 237 240 245 235 227 228 179 161 152 142 134 127 122 118 116 111 103 99 101 97 102 111 117 105 102 101 98 97 99 98 94 93 92 86 92
246 244 233 245 254 237 270 295 6 240 232 233 200 181 172 169 155 143 137 135 133 127 124 115 111 107 106 101 98 102 110 113 109 103 101 101 102 99 100 98 93 84 87 84